Regional Weather Roundup
Issued by NWS

Home | Current Version | Previous Version | Graphics & Text | Print | Product List | Glossary On
Versions: 1 2 3 4 5 6 7 8 9 10 11 12 13 14 15 16 17 18 19 20 21 22 23 24 25 26 27 28 29 30 31 32 33 34 35 36 37 38 39 40 41 42 43 44 45 46 47 48 49 50
000
ASUS43 KLMK 061710
RWRKY
KENTUCKY REGIONAL WEATHER ROUNDUP
NATIONAL WEATHER SERVICE LOUISVILLE KY
100 PM EDT FRI MAY 06 2016

NOTE "FAIR" INDICATES FEW OR NO CLOUDS BELOW 12,000 FEET
WITH NO SIGNIFICANT WEATHER AND/OR OBSTRUCTIONS TO VISIBILITY.

KYZ001>023-026-027-061>063-070>075-061800-
WESTERN AND SOUTH CENTRAL KENTUCKY

CITY           SKY/WX    TMP DP  RH WIND       PRES   REMARKS
PADUCAH        SUNNY     70  45  40 VRB6      30.06F
HENDERSON      MOSUNNY   70  45  40 NW8       30.04F
OWENSBORO      MOSUNNY   68  44  41 N9G21     30.05F
HOPKINSVILLE   MOSUNNY   67  46  47 N9        30.04F
BOWLING GREEN  MOSUNNY   68  42  38 VRB7G17   30.03F
GLASGOW        SUNNY     67  40  37 N9G16     30.02F
$$

KYZ024-025-028>034-038-045-046-053-061800-
NORTH CENTRAL KENTUCKY

CITY           SKY/WX    TMP DP  RH WIND       PRES   REMARKS
LOUISVILLE/SDF MOSUNNY   69  41  36 N9        30.01F
LOUISVILLE/LOU SUNNY     68  40  35 N9        30.01F
FORT KNOX      SUNNY     66  43  43 VRB5      30.00F
$$

KYZ035>037-039>044-047>052-055>060-089>105-061800-
NORTHEAST KENTUCKY

CITY           SKY/WX    TMP DP  RH WIND       PRES   REMARKS
LEXINGTON      MOSUNNY   66  44  45 N14       29.98F
COVINGTON      MOSUNNY   66  45  46 NW7       29.98F
FRANKFORT      MOSUNNY   67  43  41 N12       29.98
$$

KYZ054-064>069-076>088-106>120-061800-
SOUTHEAST KENTUCKY

CITY           SKY/WX    TMP DP  RH WIND       PRES   REMARKS
JACKSON        MOSUNNY   63  44  50 VRB5      29.94F
LONDON         PTSUNNY   65  41  41 N10G23    29.96F
SOMERSET       PTSUNNY   63  41  45 N14G22    29.99F
MIDDLESBORO    CLOUDY    60  44  54 NW7       29.96F
MONTICELLO     SUNNY     65  48  54 N16G26    30.00F
$$





USA.gov is the U.S. government's official web portal to all federal, state and local government web resources and services.